| time (UTC) | temp F | wind direction | speed knots | gust knots | rain 1hr in | rain 24hr in | rain mn in | humidity % | barometer mb |
| 20260901154913 | 87 | 21 | 1.7 | 2.6 | 0.00 | 0.00 | 0.00 | 63 | 1016.5 |
| 20260901154412 | 87 | 301 | 3.5 | 3.5 | 0.00 | 0.00 | 0.00 | 65 | 1016.5 |
| 20260901153906 | 86 | 78 | 3.5 | 4.3 | 0.00 | 0.00 | 0.00 | 64 | 1016.5 |
| 20260901153406 | 86 | 277 | 8.7 | 10.4 | 0.00 | 0.00 | 0.00 | 64 | 1016.6 |
| 20260901152900 | 87 | 245 | 4.3 | 10.4 | 0.00 | 0.00 | 0.00 | 63 | 1016.5 |
| 20260901152355 | 86 | 50 | 0.9 | 3.5 | 0.00 | 0.00 | 0.00 | 65 | 1016.6 |
| 20260901151849 | 85 | 307 | 1.7 | 7.0 | 0.00 | 0.00 | 0.00 | 66 | 1016.6 |
| 20260901151344 | 86 | 239 | 2.6 | 6.1 | 0.00 | 0.00 | 0.00 | 65 | 1016.7 |
| 20260901150843 | 85 | 314 | 5.2 | 7.0 | 0.00 | 0.00 | 0.00 | 64 | 1016.9 |
| 20260901150341 | 85 | 98 | 2.6 | 7.0 | 0.00 | 0.00 | 0.00 | 65 | 1016.6 |
| 20260901145838 | 85 | 341 | 2.6 | 7.0 | 0.00 | 0.00 | 0.00 | 65 | 1016.6 |
| 20260901145333 | 85 | 16 | 1.7 | 4.3 | 0.00 | 0.00 | 0.00 | 67 | 1016.6 |
| 20260901144828 | 84 | 234 | 4.3 | 8.7 | 0.00 | 0.00 | 0.00 | 66 | 1016.6 |
| 20260901144324 | 85 | 332 | 0.9 | 8.7 | 0.00 | 0.00 | 0.00 | 66 | 1016.7 |
| 20260901143820 | 84 | 107 | 1.7 | 8.7 | 0.00 | 0.00 | 0.00 | 67 | 1016.5 |
| 20260901143316 | 84 | 204 | 2.6 | 10.4 | 0.00 | 0.00 | 0.00 | 68 | 1016.4 |
| 20260901142812 | 84 | 234 | 4.3 | 6.1 | 0.00 | 0.00 | 0.00 | 67 | 1016.6 |
| 20260901142310 | 83 | 352 | 2.6 | 6.1 | 0.00 | 0.00 | 0.00 | 68 | 1016.4 |
| 20260901141806 | 83 | 27 | 0.9 | 13.9 | 0.00 | 0.00 | 0.00 | 70 | 1016.5 |
| 20260901141301 | 82 | 236 | 2.6 | 7.0 | 0.00 | 0.00 | 0.00 | 71 | 1016.4 |
| 20260901140800 | 82 | 242 | 3.5 | 8.7 | 0.00 | 0.00 | 0.00 | 70 | 1016.4 |
| 20260901140258 | 82 | 256 | 3.5 | 6.1 | 0.00 | 0.00 | 0.00 | 70 | 1016.2 |
| 20260901135754 | 82 | 211 | 2.6 | 4.3 | 0.00 | 0.00 | 0.00 | 71 | 1016.1 |
| 20260901135253 | 82 | 354 | 2.6 | 10.4 | 0.00 | 0.00 | 0.00 | 71 | 1016.4 |
| 20260901134750 | 81 | 201 | 2.6 | 2.6 | 0.00 | 0.00 | 0.00 | 72 | 1016.4 |
| 20260901134249 | 81 | 275 | 3.5 | 8.7 | 0.00 | 0.00 | 0.00 | 73 | 1016.5 |
| 20260901133748 | 81 | 276 | 6.1 | 8.7 | 0.00 | 0.00 | 0.00 | 72 | 1016.5 |
| 20260901133243 | 82 | 248 | 2.6 | 6.1 | 0.00 | 0.00 | 0.00 | 72 | 1016.5 |
| 20260901132741 | 81 | 43 | 2.6 | 4.3 | 0.00 | 0.00 | 0.00 | 72 | 1016.4 |
| 20260901132236 | 81 | 316 | 1.7 | 2.6 | 0.00 | 0.00 | 0.00 | 74 | |
| 20260901131731 | 80 | 252 | 2.6 | 2.6 | 0.00 | 0.00 | 0.00 | 76 | |
| 20260901131230 | 79 | 245 | 2.6 | 4.3 | 0.00 | 0.00 | 0.00 | 78 | |
| 20260901130726 | 78 | 247 | 1.7 | 2.6 | 0.00 | 0.00 | 0.00 | 80 | |
| 20260901130225 | 78 | 227 | 3.5 | 4.3 | 0.00 | 0.00 | 0.00 | 80 | |
| 20260901125723 | 77 | 262 | 0.9 | 3.5 | 0.00 | 0.00 | 0.00 | 81 | |
| 20260901125218 | 77 | 240 | 2.6 | 6.1 | 0.00 | 0.00 | 0.00 | 83 | |
| 20260901124712 | 76 | 298 | 1.7 | 2.6 | 0.00 | 0.00 | 0.00 | 84 | |
| 20260901124207 | 76 | 247 | 0.0 | 2.6 | 0.00 | 0.00 | 0.00 | 84 | |
| 20260901123707 | 76 | 297 | 1.7 | 3.5 | 0.00 | 0.00 | 0.00 | 84 | |
| 20260901123202 | 76 | 236 | 0.9 | 0.9 | 0.00 | 0.00 | 0.00 | 85 | |
| 20260901122700 | 76 | 208 | 0.9 | 2.6 | 0.00 | 0.00 | 0.00 | 85 | |
| 20260901122155 | 75 | 146 | 0.9 | 2.6 | 0.00 | 0.00 | 0.00 | 85 | |
| 20260901121649 | 75 | 191 | 0.9 | 0.9 | 0.00 | 0.00 | 0.00 | 86 | |
| 20260901121145 | 75 | 295 | 0.9 | 2.6 | 0.00 | 0.00 | 0.00 | 86 | |
| 20260901120644 | 75 | 251 | 0.9 | 2.6 | 0.00 | 0.00 | 0.00 | 86 | |
| 20260901120140 | 75 | 249 | 0.0 | 2.6 | 0.00 | 0.00 | 0.00 | 86 | |
| 20260901115635 | 75 | 221 | 0.0 | 2.6 | 0.00 | 0.00 | 0.00 | 86 | |
| 20260901115131 | 75 | 257 | 2.6 | 3.5 | 0.00 | 0.00 | 0.00 | 86 | |
| 20260901114627 | 75 | 126 | 0.0 | 0.9 | 0.00 | 0.00 | 0.00 | 87 | |
| 20260901114126 | 75 | 208 | 0.9 | 3.5 | 0.00 | 0.00 | 0.00 | 87 | |
| 20260901113620 | 74 | 159 | 1.7 | 2.6 | 0.00 | 0.00 | 0.00 | 87 | |
| 20260901113115 | 75 | 144 | 0.9 | 2.6 | 0.00 | 0.00 | 0.00 | 87 | |
| 20260901112615 | 74 | 236 | 2.6 | 3.5 | 0.00 | 0.00 | 0.00 | 87 | |
| 20260901112109 | 74 | 232 | 0.0 | 0.0 | 0.00 | 0.00 | 0.00 | 87 | |
| 20260901111608 | 74 | 83 | 0.9 | 2.6 | 0.00 | 0.00 | 0.00 | 87 | |
| 20260901111107 | 74 | 212 | 0.9 | 3.5 | 0.00 | 0.00 | 0.00 | 87 | |
| 20260901110603 | 74 | 124 | 0.0 | 2.6 | 0.00 | 0.00 | 0.00 | 87 | |
| 20260901110058 | 74 | 229 | 0.9 | 3.5 | 0.00 | 0.00 | 0.00 | 87 | |
| 20260901105555 | 75 | 205 | 1.7 | 3.5 | 0.00 | 0.00 | 0.00 | 87 | |
| 20260901105048 | 75 | 116 | 0.0 | 2.6 | 0.00 | 0.00 | 0.00 | 86 | |
| 20260901104545 | 75 | 215 | 1.7 | 2.6 | 0.00 | 0.00 | 0.00 | 86 | |
| 20260901104040 | 75 | 111 | 0.9 | 3.5 | 0.00 | 0.00 | 0.00 | 86 | |
| 20260901103534 | 75 | 216 | 0.0 | 0.9 | 0.00 | 0.00 | 0.00 | 86 | |
| 20260901103030 | 75 | 249 | 1.7 | 2.6 | 0.00 | 0.00 | 0.00 | 86 | |
| 20260901102530 | 75 | 230 | 1.7 | 3.5 | 0.00 | 0.00 | 0.00 | 86 | |
| 20260901102024 | 75 | 132 | 0.9 | 2.6 | 0.00 | 0.00 | 0.00 | 86 | |
| 20260901101520 | 75 | 98 | 0.0 | 0.9 | 0.00 | 0.00 | 0.00 | 86 | |
| 20260901101019 | 75 | 151 | 0.0 | 2.6 | 0.00 | 0.00 | 0.00 | 85 | |
| 20260901100514 | 75 | 222 | 0.0 | 3.5 | 0.00 | 0.00 | 0.00 | 85 | |
| 20260901100014 | 75 | 134 | 0.0 | 2.6 | 0.00 | 0.00 | 0.00 | 85 | |
| 20260901095512 | 75 | 225 | 2.6 | 2.6 | 0.00 | 0.00 | 0.00 | 84 | |
| 20260901095010 | 75 | 263 | 0.9 | 2.6 | 0.00 | 0.00 | 0.00 | 84 | |
| 20260901094505 | 75 | 123 | 1.7 | 3.5 | 0.00 | 0.00 | 0.00 | 84 | |
| 20260901094004 | 75 | 314 | 1.7 | 4.3 | 0.00 | 0.00 | 0.00 | 84 | |
| 20260901093504 | 75 | 176 | 0.9 | 3.5 | 0.00 | 0.00 | 0.00 | 84 | |
| 20260901092959 | 75 | 195 | 1.7 | 2.6 | 0.00 | 0.00 | 0.00 | 85 | |
| 20260901092455 | 75 | 150 | 1.7 | 3.5 | 0.00 | 0.00 | 0.00 | 85 | |
| 20260901091951 | 75 | 230 | 2.6 | 3.5 | 0.00 | 0.00 | 0.00 | 85 | |
| 20260901091446 | 75 | 219 | 0.0 | 0.9 | 0.00 | 0.00 | 0.00 | 85 | |
| 20260901090941 | 75 | 189 | 0.0 | 0.9 | 0.00 | 0.00 | 0.00 | 86 | |
| 20260901090440 | 74 | 246 | 0.0 | 0.0 | 0.00 | 0.00 | 0.00 | 86 | |
| 20260901085936 | 74 | 187 | 0.0 | 2.6 | 0.00 | 0.00 | 0.00 | 86 | |
| 20260901085432 | 74 | 184 | 2.6 | 3.5 | 0.00 | 0.00 | 0.00 | 87 | |
| 20260901084928 | 74 | 196 | 0.9 | 0.9 | 0.00 | 0.00 | 0.00 | 87 | |
| 20260901084424 | 74 | 196 | 0.0 | 0.0 | 0.00 | 0.00 | 0.00 | 87 | |
| 20260901083919 | 74 | 219 | 0.9 | 2.6 | 0.00 | 0.00 | 0.00 | 87 | |
| 20260901083414 | 74 | 231 | 1.7 | 2.6 | 0.00 | 0.00 | 0.00 | 86 | |
| 20260901082912 | 74 | 132 | 0.9 | 0.9 | 0.00 | 0.00 | 0.00 | 86 | |
| 20260901082408 | 74 | 246 | 0.9 | 2.6 | 0.00 | 0.00 | 0.00 | 86 | |
| 20260901081902 | 74 | 275 | 0.0 | 0.9 | 0.00 | 0.00 | 0.00 | 87 | |
| 20260901081358 | 73 | 172 | 0.0 | 0.0 | 0.00 | 0.00 | 0.00 | 87 | |
| 20260901080857 | 73 | 173 | 0.0 | 0.9 | 0.00 | 0.00 | 0.00 | 88 | |
| 20260901080351 | 73 | 172 | 0.0 | 0.9 | 0.00 | 0.00 | 0.00 | 88 | |
| 20260901075845 | 73 | 134 | 0.0 | 0.0 | 0.00 | 0.00 | 0.00 | 88 | |
| 20260901075341 | 73 | 134 | 0.0 | 0.9 | 0.00 | 0.00 | 0.00 | 88 | |
| 20260901074830 | 73 | 134 | 0.0 | 0.0 | 0.00 | 0.00 | 0.00 | 88 | |
| 20260901074325 | 73 | 134 | 0.0 | 2.6 | 0.00 | 0.00 | 0.00 | 88 | |
| 20260901073820 | 73 | 135 | 0.0 | 0.0 | 0.00 | 0.00 | 0.00 | 88 | |
| 20260901073316 | 73 | 274 | 0.9 | 0.9 | 0.00 | 0.00 | 0.00 | 88 | |
| 20260901072812 | 73 | 275 | 0.9 | 0.9 | 0.00 | 0.00 | 0.00 | 88 | |
| 20260901072311 | 73 | 275 | 0.0 | 0.0 | 0.00 | 0.00 | 0.00 | 88 | |
| 20260901071807 | 73 | 275 | 0.9 | 0.9 | 0.00 | 0.00 | 0.00 | 89 | |
| 20260901071305 | 73 | 275 | 0.0 | 0.0 | 0.00 | 0.00 | 0.00 | 90 | |
| 20260901070804 | 73 | 275 | 0.0 | 0.9 | 0.00 | 0.00 | 0.00 | 89 | |
| 20260901070300 | 72 | 275 | 0.9 | 0.9 | 0.00 | 0.00 | 0.00 | 91 | |
| 20260901065759 | 72 | 275 | 0.0 | 0.0 | 0.00 | 0.00 | 0.00 | 91 | |
| 20260901065254 | 72 | 275 | 0.9 | 0.9 | 0.00 | 0.00 | 0.00 | 92 | |
| 20260901064750 | 72 | 275 | 0.0 | 0.0 | 0.00 | 0.00 | 0.00 | 92 | |
| 20260901064246 | 72 | 275 | 0.0 | 0.9 | 0.00 | 0.00 | 0.00 | 92 | |
| 20260901063744 | 72 | 275 | 0.0 | 0.0 | 0.00 | 0.00 | 0.00 | 93 | |
| 20260901063239 | 72 | 275 | 0.0 | 0.0 | 0.00 | 0.00 | 0.00 | 93 | |
| 20260901062736 | 72 | 275 | 0.0 | 0.0 | 0.00 | 0.00 | 0.00 | 93 | |
| 20260901062231 | 72 | 275 | 0.0 | 0.9 | 0.00 | 0.00 | 0.00 | 93 | |
| 20260901061727 | 72 | 276 | 0.0 | 0.9 | 0.00 | 0.00 | 0.00 | 93 | |
| 20260901061226 | 72 | 276 | 0.0 | 0.0 | 0.00 | 0.00 | 0.00 | 93 | |
| 20260901060721 | 72 | 276 | 0.0 | 0.0 | 0.00 | 0.00 | 0.00 | 93 | |
| 20260901060217 | 72 | 276 | 0.0 | 0.0 | 0.00 | 0.00 | 0.00 | 93 | |
| 20260901055712 | 72 | 276 | 0.0 | 0.0 | 0.00 | 0.00 | 0.00 | 93 | |
| 20260901055209 | 72 | 276 | 0.0 | 0.0 | 0.00 | 0.00 | 0.00 | 93 | |
| 20260901054706 | 71 | 276 | 0.0 | 0.0 | 0.00 | 0.00 | 0.00 | 94 | |
| 20260901054202 | 71 | 276 | 0.0 | 0.9 | 0.00 | 0.00 | 0.00 | 94 | |
| 20260901053657 | 71 | 275 | 0.0 | 0.0 | 0.00 | 0.00 | 0.00 | 94 | |
| 20260901053153 | 71 | 276 | 0.0 | 0.0 | 0.00 | 0.00 | 0.00 | 95 | |
| 20260901052648 | 71 | 276 | 0.0 | 0.0 | 0.00 | 0.00 | 0.00 | 95 | |
| 20260901052143 | 71 | 276 | 0.9 | 0.9 | 0.00 | 0.00 | 0.00 | 96 | |
| 20260901051642 | 71 | 276 | 0.0 | 0.0 | 0.00 | 0.00 | 0.00 | 96 | |
| 20260901051142 | 71 | 276 | 0.0 | 0.0 | 0.00 | 0.00 | 0.00 | 96 | |
| 20260901050637 | 71 | 276 | 0.0 | 0.0 | 0.00 | 0.00 | 0.00 | 97 | |
| 20260901050132 | 71 | 276 | 0.0 | 0.0 | 0.00 | 0.00 | 0.00 | 96 | |
| 20260901045627 | 71 | 276 | 0.0 | 0.0 | 0.00 | 0.00 | 0.00 | 97 | |
| 20260901045122 | 71 | 276 | 0.0 | 0.0 | 0.00 | 0.00 | 0.00 | 96 | |
| 20260901044618 | 71 | 275 | 0.0 | 0.0 | 0.00 | 0.00 | 0.00 | 96 | |
| 20260901044114 | 71 | 275 | 0.0 | 0.0 | 0.00 | 0.00 | 0.00 | 96 | |
| 20260901043609 | 71 | 275 | 0.0 | 0.0 | 0.00 | 0.00 | 0.00 | 96 | |
| 20260901043104 | 71 | 275 | 0.9 | 0.0 | 0.00 | 0.00 | 0.00 | 96 | |
| 20260901042603 | 71 | 275 | 0.0 | 0.0 | 0.00 | 0.00 | 0.00 | 96 | |
| 20260901042059 | 71 | 276 | 0.9 | 0.9 | 0.00 | 0.00 | 0.00 | 96 | |
| 20260901041554 | 71 | 275 | 0.0 | 0.0 | 0.00 | 0.00 | 0.00 | 97 | |
| 20260901041049 | 71 | 276 | 0.0 | 0.0 | 0.00 | 0.00 | 0.00 | 96 | |
| 20260901040548 | 71 | 276 | 0.0 | 0.9 | 0.00 | 0.00 | 0.00 | 96 | |
| 20260901040043 | 71 | 276 | 0.0 | 0.0 | 0.00 | 0.00 | 0.00 | 96 | |
| 20260901035541 | 71 | 276 | 0.9 | 0.9 | 0.00 | 0.01 | 0.01 | 96 | |
| 20260901035039 | 71 | 276 | 0.9 | 0.9 | 0.00 | 0.01 | 0.01 | 96 | |
| 20260901034534 | 71 | 276 | 0.0 | 0.0 | 0.00 | 0.01 | 0.01 | 95 | |
| 20260901034029 | 71 | 276 | 0.0 | 0.0 | 0.00 | 0.01 | 0.01 | 95 | |
| 20260901033527 | 71 | 276 | 0.0 | 0.0 | 0.00 | 0.01 | 0.01 | 95 | |
| 20260901033027 | 71 | 276 | 0.0 | 0.0 | 0.00 | 0.01 | 0.01 | 95 | |
| 20260901032526 | 71 | 276 | 0.0 | 0.0 | 0.00 | 0.01 | 0.01 | 95 | |
| 20260901032021 | 71 | 276 | 0.0 | 0.0 | 0.00 | 0.01 | 0.01 | 94 | |
| 20260901031517 | 72 | 276 | 0.0 | 0.0 | 0.00 | 0.01 | 0.01 | 94 | |
| 20260901031012 | 72 | 276 | 0.0 | 0.0 | 0.00 | 0.01 | 0.01 | 94 | |
| 20260901030512 | 72 | 276 | 0.0 | 0.0 | 0.00 | 0.01 | 0.01 | 93 | |
| 20260901030007 | 72 | 276 | 0.0 | 0.0 | 0.00 | 0.01 | 0.01 | 93 | |
| 20260901025501 | 72 | 275 | 0.0 | 0.0 | 0.00 | 0.01 | 0.01 | 93 | |
| 20260901025001 | 72 | 276 | 0.0 | 0.0 | 0.00 | 0.01 | 0.01 | 93 | |
| 20260901024456 | 72 | 276 | 0.0 | 0.0 | 0.00 | 0.01 | 0.01 | 93 | |
| 20260901023954 | 73 | 275 | 0.0 | 0.0 | 0.00 | 0.01 | 0.01 | 93 | |
| 20260901023449 | 73 | 275 | 0.0 | 0.9 | 0.00 | 0.01 | 0.01 | 93 | |
| 20260901022943 | 73 | 28 | 0.9 | 0.9 | 0.00 | 0.01 | 0.01 | 92 | |
| 20260901022440 | 73 | 28 | 0.0 | 0.9 | 0.00 | 0.01 | 0.01 | 92 | |
| 20260901021934 | 73 | 29 | 0.0 | 0.0 | 0.00 | 0.01 | 0.01 | 92 | |
| 20260901021430 | 73 | 29 | 0.0 | 0.0 | 0.00 | 0.01 | 0.01 | 91 | |
| 20260901020925 | 73 | 28 | 0.0 | 0.0 | 0.00 | 0.01 | 0.01 | 92 | |
| 20260901020420 | 74 | 29 | 0.9 | 0.9 | 0.00 | 0.01 | 0.01 | 91 | |
| 20260901015919 | 74 | 29 | 0.0 | 0.0 | 0.00 | 0.01 | 0.01 | 90 | |
| 20260901015416 | 75 | 29 | 0.9 | 0.9 | 0.00 | 0.01 | 0.01 | 88 | |
| 20260901014915 | 75 | 29 | 0.0 | 0.0 | 0.00 | 0.01 | 0.01 | 86 | |
| 20260901014412 | 75 | 29 | 0.0 | 0.0 | 0.00 | 0.01 | 0.01 | 86 | |
| 20260901013907 | 75 | 28 | 0.0 | 0.9 | 0.00 | 0.01 | 0.01 | 86 | |
| 20260901013402 | 76 | 153 | 0.9 | 0.9 | 0.00 | 0.01 | 0.01 | 85 | |
| 20260901012858 | 76 | 154 | 0.9 | 0.9 | 0.00 | 0.01 | 0.01 | 82 | |
| 20260901012353 | 75 | 153 | 0.0 | 0.0 | 0.00 | 0.01 | 0.01 | 84 | |
| 20260901011848 | 75 | 153 | 0.0 | 2.6 | 0.00 | 0.01 | 0.01 | 84 | |
| 20260901011344 | 75 | 161 | 1.7 | 2.6 | 0.00 | 0.01 | 0.01 | 84 | |
| 20260901010843 | 76 | 239 | 0.0 | 0.0 | 0.00 | 0.01 | 0.01 | 82 | |
| 20260901010337 | 76 | 240 | 0.0 | 0.0 | 0.00 | 0.01 | 0.01 | 81 | |
| 20260901005836 | 76 | 240 | 0.9 | 0.9 | 0.00 | 0.01 | 0.01 | 81 | |
| 20260901005331 | 76 | 240 | 0.9 | 0.9 | 0.00 | 0.01 | 0.01 | 80 | |
| 20260901004826 | 77 | 240 | 0.0 | 0.0 | 0.00 | 0.01 | 0.01 | 81 | |
| 20260901004320 | 77 | 240 | 0.0 | 0.0 | 0.00 | 0.01 | 0.01 | 81 | |
| 20260901003814 | 77 | 240 | 0.0 | 0.0 | 0.00 | 0.01 | 0.01 | 79 | |
| 20260901003309 | 77 | 240 | 0.0 | 0.0 | 0.00 | 0.01 | 0.01 | 78 | |
| 20260901002803 | 77 | 240 | 0.0 | 0.0 | 0.00 | 0.01 | 0.01 | 78 | |
| 20260901002258 | 78 | 240 | 0.0 | 0.0 | 0.00 | 0.01 | 0.01 | 77 | |
| 20260901001753 | 78 | 240 | 0.0 | 0.0 | 0.00 | 0.01 | 0.01 | 77 | |
| 20260901001248 | 78 | 240 | 0.0 | 0.0 | 0.00 | 0.01 | 0.01 | 75 | |
| 20260901000738 | 78 | 240 | 0.0 | 0.0 | 0.00 | 0.01 | 0.01 | 75 | |
| 20260901000233 | 79 | 240 | 0.0 | 0.0 | 0.00 | 0.01 | 0.01 | 75 | |
| 20260831235725 | 79 | 240 | 0.0 | 0.0 | 0.00 | 0.01 | 0.01 | 74 | |
| 20260831235221 | 79 | 240 | 0.0 | 0.0 | 0.00 | 0.01 | 0.01 | 74 | |
| 20260831234721 | 79 | 240 | 0.0 | 0.0 | 0.00 | 0.01 | 0.01 | 73 | |
| 20260831234216 | 79 | 240 | 0.0 | 0.0 | 0.00 | 0.01 | 0.01 | 72 | |
| 20260831233711 | 79 | 240 | 0.0 | 0.9 | 0.00 | 0.01 | 0.01 | 74 | |
| 20260831233207 | 79 | 241 | 0.0 | 0.9 | 0.00 | 0.01 | 0.01 | 76 | |
| 20260831232706 | 79 | 317 | 0.9 | 0.9 | 0.00 | 0.01 | 0.01 | 75 | |
| 20260831232203 | 79 | 317 | 0.0 | 0.9 | 0.00 | 0.01 | 0.01 | 78 | |
| 20260831231659 | 80 | 317 | 0.0 | 0.9 | 0.00 | 0.01 | 0.01 | 79 | |
| 20260831231155 | 80 | 317 | 0.0 | 0.9 | 0.00 | 0.01 | 0.01 | 77 | |
| 20260831230654 | 81 | 317 | 0.9 | 0.9 | 0.00 | 0.01 | 0.01 | 77 | |
| 20260831230150 | 82 | 317 | 0.0 | 0.9 | 0.00 | 0.01 | 0.01 | 74 | |
| 20260831225649 | 83 | 317 | 0.9 | 0.9 | 0.00 | 0.01 | 0.01 | 71 | |
| 20260831225144 | 83 | 318 | 0.0 | 0.0 | 0.00 | 0.01 | 0.01 | 70 | |
| 20260831224639 | 84 | 317 | 0.0 | 0.0 | 0.00 | 0.01 | 0.01 | 71 | |
| 20260831224135 | 84 | 317 | 0.0 | 0.0 | 0.00 | 0.01 | 0.01 | 68 | |
| 20260831223630 | 84 | 317 | 0.0 | 0.0 | 0.00 | 0.01 | 0.01 | 65 | |
| 20260831223126 | 84 | 317 | 0.0 | 0.9 | 0.00 | 0.01 | 0.01 | 67 | |
| 20260831222622 | 85 | 342 | 0.0 | 0.0 | 0.00 | 0.01 | 0.01 | 63 | |
| 20260831222118 | 84 | 342 | 0.0 | 0.0 | 0.00 | 0.01 | 0.01 | 66 | |
| 20260831221613 | 83 | 342 | 0.9 | 0.9 | 0.00 | 0.01 | 0.01 | 69 | |
| 20260831221114 | 84 | 15 | 0.0 | 0.0 | 0.00 | 0.01 | 0.01 | 68 | |
| 20260831220608 | 84 | 15 | 0.0 | 0.0 | 0.00 | 0.01 | 0.01 | 68 | |
| 20260831220104 | 84 | 15 | 0.0 | 0.0 | 0.00 | 0.01 | 0.01 | 66 | |
| 20260831215559 | 85 | 14 | 0.9 | 2.6 | 0.00 | 0.01 | 0.01 | 62 | |
| 20260831215054 | 85 | 37 | 1.7 | 3.5 | 0.00 | 0.01 | 0.01 | 60 | |
| 20260831214547 | 86 | 4 | 2.6 | 2.6 | 0.00 | 0.01 | 0.01 | 60 | |
| 20260831214042 | 87 | 6 | 0.9 | 0.9 | 0.00 | 0.01 | 0.01 | 60 | |
| 20260831213538 | 87 | 6 | 0.9 | 0.9 | 0.00 | 0.01 | 0.01 | 58 | |
| 20260831213028 | 89 | 293 | 1.7 | 2.6 | 0.00 | 0.01 | 0.01 | 55 | |
| 20260831212524 | 89 | 236 | 0.9 | 0.9 | 0.00 | 0.01 | 0.01 | 56 | |
| 20260831212019 | 88 | 18 | 0.0 | 0.0 | 0.00 | 0.01 | 0.01 | 59 | |
| 20260831211513 | 88 | 310 | 0.9 | 2.6 | 0.00 | 0.01 | 0.01 | 58 | |
| 20260831211012 | 88 | 322 | 1.7 | 3.5 | 0.00 | 0.01 | 0.01 | 59 | |
| 20260831210508 | 86 | 357 | 0.0 | 2.6 | 0.00 | 0.01 | 0.01 | 60 | |
| 20260831210004 | 86 | 246 | 2.6 | 3.5 | 0.00 | 0.01 | 0.01 | 61 | |
| 20260831205458 | 86 | 212 | 1.7 | 2.6 | 0.00 | 0.01 | 0.01 | 64 | |
| 20260831204954 | 85 | 204 | 0.9 | 0.9 | 0.00 | 0.01 | 0.01 | 65 | |
| 20260831204449 | 84 | 204 | 0.0 | 0.0 | 0.00 | 0.01 | 0.01 | 68 | |
| 20260831203947 | 84 | 187 | 0.0 | 0.9 | 0.00 | 0.01 | 0.01 | 69 | |
| 20260831203442 | 84 | 220 | 0.0 | 0.0 | 0.00 | 0.01 | 0.01 | 68 | |
| 20260831202940 | 83 | 220 | 0.0 | 0.0 | 0.00 | 0.01 | 0.01 | 70 | |
| 20260831202435 | 82 | 220 | 0.0 | 0.0 | 0.00 | 0.01 | 0.01 | 70 | 1019.7 |
| 20260831201929 | 82 | 220 | 0.9 | 2.6 | 0.00 | 0.01 | 0.01 | 66 | 1019.7 |
| 20260831201428 | 83 | 234 | 0.9 | 0.9 | 0.00 | 0.01 | 0.01 | 69 | 1019.7 |
| 20260831200924 | 84 | 280 | 0.9 | 4.3 | 0.00 | 0.01 | 0.01 | 64 | 1019.7 |
| 20260831200419 | 84 | 112 | 0.9 | 0.9 | 0.00 | 0.01 | 0.01 | 65 | 1019.7 |
| 20260831195914 | 85 | 128 | 0.0 | 2.6 | 0.00 | 0.01 | 0.01 | 62 | 1019.7 |
| 20260831195409 | 86 | 286 | 0.9 | 0.9 | 0.00 | 0.01 | 0.01 | 59 | 1019.7 |
| 20260831194904 | 86 | 31 | 0.9 | 4.3 | 0.00 | 0.01 | 0.01 | 58 | 1019.7 |
| 20260831194400 | 86 | 61 | 0.0 | 0.9 | 0.00 | 0.01 | 0.01 | 58 | 1019.7 |
| 20260831193859 | 87 | 286 | 0.9 | 2.6 | 0.00 | 0.01 | 0.01 | 56 | 1019.7 |
| 20260831193354 | 89 | 342 | 1.7 | 7.0 | 0.00 | 0.01 | 0.01 | 55 | 1019.7 |
| 20260831192849 | 89 | 111 | 2.6 | 2.6 | 0.00 | 0.01 | 0.01 | 53 | 1019.7 |
| 20260831192344 | 87 | 357 | 0.0 | 2.6 | 0.00 | 0.01 | 0.01 | 55 | 1019.8 |
| 20260831191839 | 88 | 284 | 5.2 | 7.0 | 0.00 | 0.01 | 0.01 | 54 | 1019.7 |
| 20260831191335 | 88 | 285 | 3.5 | 7.0 | 0.00 | 0.01 | 0.01 | 54 | 1019.9 |
| 20260831190831 | 88 | 241 | 7.0 | 15.6 | 0.00 | 0.01 | 0.01 | 54 | 1019.9 |
| 20260831190326 | 88 | 186 | 7.0 | 7.0 | 0.00 | 0.01 | 0.01 | 52 | 1020.1 |
| 20260831185825 | 87 | 227 | 4.3 | 9.6 | 0.00 | 0.01 | 0.01 | 54 | 1020.3 |
| 20260831185321 | 87 | 268 | 2.6 | 6.1 | 0.00 | 0.01 | 0.01 | 55 | 1020.2 |
| 20260831184820 | 86 | 238 | 3.5 | 4.3 | 0.00 | 0.01 | 0.01 | 56 | 1020.2 |
| 20260831184316 | 86 | 266 | 3.5 | 7.0 | 0.00 | 0.01 | 0.01 | 58 | 1020.2 |
| 20260831183811 | 86 | 271 | 2.6 | 4.3 | 0.00 | 0.01 | 0.01 | 59 | 1020.3 |
| 20260831183310 | 86 | 119 | 1.7 | 4.3 | 0.00 | 0.01 | 0.01 | 60 | 1020.4 |
| 20260831182809 | 85 | 252 | 3.5 | 9.6 | 0.00 | 0.01 | 0.01 | 58 | 1020.4 |
| 20260831182305 | 85 | 248 | 1.7 | 2.6 | 0.00 | 0.01 | 0.01 | 64 | 1020.4 |
| 20260831181759 | 85 | 227 | 3.5 | 6.1 | 0.00 | 0.01 | 0.01 | 62 | 1020.4 |
| 20260831181254 | 86 | 173 | 2.6 | 3.5 | 0.00 | 0.01 | 0.01 | 60 | 1020.2 |
| 20260831180749 | 86 | 248 | 3.5 | 4.3 | 0.00 | 0.01 | 0.01 | 60 | 1020.3 |
| 20260831180244 | 86 | 254 | 1.7 | 3.5 | 0.00 | 0.01 | 0.01 | 59 | 1020.3 |
| 20260831175743 | 86 | 304 | 3.5 | 9.6 | 0.00 | 0.01 | 0.01 | 58 | 1020.4 |
| 20260831175240 | 86 | 289 | 1.7 | 3.5 | 0.00 | 0.01 | 0.01 | 59 | 1020.4 |
| 20260831174735 | 87 | 2 | 3.5 | 7.0 | 0.00 | 0.01 | 0.01 | 57 | 1020.3 |
| 20260831174231 | 86 | 321 | 1.7 | 2.6 | 0.00 | 0.01 | 0.01 | 59 | 1020.6 |
| 20260831173729 | 85 | 233 | 0.9 | 4.3 | 0.00 | 0.01 | 0.01 | 57 | 1020.3 |
| 20260831173229 | 86 | 268 | 4.3 | 6.1 | 0.00 | 0.01 | 0.01 | 55 | 1020.4 |
| 20260831172725 | 85 | 275 | 2.6 | 4.3 | 0.00 | 0.01 | 0.01 | 55 | 1020.5 |
| 20260831172220 | 85 | 312 | 2.6 | 7.0 | 0.00 | 0.01 | 0.01 | 57 | 1020.4 |
| 20260831171714 | 85 | 260 | 3.5 | 6.1 | 0.00 | 0.01 | 0.01 | 57 | 1020.5 |
| 20260831171212 | 85 | 206 | 2.6 | 6.1 | 0.00 | 0.01 | 0.01 | 56 | 1020.5 |
| 20260831170708 | 86 | 272 | 2.6 | 3.5 | 0.00 | 0.01 | 0.01 | 54 | 1020.5 |
| 20260831170205 | 86 | 301 | 1.7 | 3.5 | 0.00 | 0.01 | 0.01 | 54 | 1020.8 |
| 20260831165700 | 87 | 243 | 2.6 | 4.3 | 0.00 | 0.01 | 0.01 | 52 | 1020.5 |
| 20260831165156 | 87 | 351 | 1.7 | 3.5 | 0.00 | 0.01 | 0.01 | 51 | 1020.7 |
| 20260831164652 | 86 | 359 | 2.6 | 3.5 | 0.00 | 0.01 | 0.01 | 57 | 1020.5 |
| 20260831164148 | 86 | 262 | 6.1 | 7.0 | 0.00 | 0.01 | 0.01 | 58 | 1020.7 |
| 20260831163643 | 86 | 249 | 4.3 | 3.5 | 0.00 | 0.01 | 0.01 | 59 | 1020.5 |
| 20260831163139 | 84 | 298 | 0.9 | 0.9 | 0.00 | 0.01 | 0.01 | 63 | 1020.7 |
| 20260831162638 | 84 | 240 | 0.9 | 6.1 | 0.00 | 0.01 | 0.01 | 59 | 1020.6 |
| 20260831162136 | 85 | 234 | 4.3 | 6.1 | 0.00 | 0.01 | 0.01 | 58 | 1020.7 |
| 20260831161632 | 84 | 53 | 0.0 | 3.5 | 0.00 | 0.01 | 0.01 | 59 | 1020.8 |
| 20260831161129 | 85 | 352 | 0.9 | 9.6 | 0.00 | 0.01 | 0.01 | 60 | 1020.6 |
| 20260831160627 | 84 | 98 | 0.0 | 2.6 | 0.00 | 0.01 | 0.01 | 63 | 1020.6 |
| 20260831160122 | 83 | 331 | 0.9 | 7.0 | 0.00 | 0.01 | 0.01 | 64 | 1020.6 |
| 20260831155617 | 84 | 247 | 2.6 | 4.3 | 0.00 | 0.01 | 0.01 | 63 | 1020.7 |